To NAV CANADA Home Page Login to a new session Search on AWWS site Feedback and Comments Disclaimer Vers la page française équivalente Tips FAQ What's new on the site To the Forecasts and Observations / NOTAM section To "File a Flight Plan" website Publications and other links Update of the User's profile FIC Telephone Numbers My Weather Data Folder Route Weather Data Regional Weather Data Local Weather Data To the Forecasts and Observations / NOTAM section
Request Generated 06/26/2017 at 22:29:53 UTC . Weather information available at that time is displayed.

METAR/TAF

FLIN FLON/MB    (show WxCam)

LWIS CYFO 262200Z AUTO 19010G17KT 170V250 25/06 A2990=
METAR CYFO 262100Z 24009G16KT 180V260 15SM FEW250 24/04 A2993 RMK CI2
SLP140 DENSITY ALT 2300FT=
METAR CYFO 262000Z 24008G18KT 160V270 15SM SKC 24/00 A2996 RMK SLP152
DENSITY ALT 2200FT=

CYFO - No TAF is issued for this station

Your time UTC time
Weather data provided by Environment Canada and NAV CANADA